UAE817 OMDW-OERK

Flight info

Callsign UAE817
Flight time 1h 18m
Altitude 34000
Route KUTLI L519 VUXOD N563 UMIBU P899 KUPSA/N0414F260 B415 DOH M430 KOBOX
Aircraft A388/J-SADE2E3FGHIJ3J4J5M1RWXY/LB1D1

Departure

Time 2026-04-21 18:33
Airport Al Maktoum International Airport (OMDW)

Arrival

Time 2026-04-21 19:51
Airport King Khalid International Airport (OERK)
Time Latitude Longitude Altitude Speed Heading
2026-04-21 18:06 24.88828 55.16230 147 ft 0 kts 210°
2026-04-21 18:23 24.88829 55.16231 145 ft 1 kts 210°
2026-04-21 18:23 24.88844 55.16241 144 ft 3 kts 214°
2026-04-21 18:23 24.88860 55.16250 144 ft 3 kts 184°
2026-04-21 18:23 24.88880 55.16252 147 ft 3 kts 186°
2026-04-21 18:24 24.88900 55.16254 147 ft 3 kts 183°
2026-04-21 18:24 24.88915 55.16255 147 ft 1 kts 178°
2026-04-21 18:24 24.88916 55.16255 147 ft 1 kts 178°
2026-04-21 18:27 24.88912 55.16255 147 ft 0 kts 178°
2026-04-21 18:28 24.88900 55.16256 147 ft 2 kts 154°
2026-04-21 18:28 24.88882 55.16280 149 ft 10 kts 121°
2026-04-21 18:28 24.88835 55.16385 149 ft 21 kts 115°
2026-04-21 18:28 24.88766 55.16547 150 ft 23 kts 120°
2026-04-21 18:29 24.88676 55.16696 153 ft 24 kts 121°
2026-04-21 18:29 24.88591 55.16852 155 ft 24 kts 121°
2026-04-21 18:29 24.88504 55.17011 157 ft 24 kts 121°
2026-04-21 18:29 24.88432 55.17139 158 ft 12 kts 122°
2026-04-21 18:30 24.88386 55.17221 159 ft 14 kts 121°
2026-04-21 18:30 24.88334 55.17322 161 ft 11 kts 90°
2026-04-21 18:30 24.88378 55.17379 161 ft 12 kts 30°
2026-04-21 18:30 24.88459 55.17430 161 ft 15 kts 30°
2026-04-21 18:31 24.88557 55.17494 161 ft 18 kts 31°
2026-04-21 18:31 24.88655 55.17559 160 ft 16 kts 31°
2026-04-21 18:31 24.88758 55.17627 160 ft 18 kts 30°
2026-04-21 18:31 24.88794 55.17649 160 ft 1 kts 14°
2026-04-21 18:32 24.88812 55.17639 160 ft 5 kts 314°
2026-04-21 18:32 24.88845 55.17586 160 ft 12 kts 302°
2026-04-21 18:32 24.88961 55.17376 158 ft 72 kts 303°
2026-04-21 18:32 24.89365 55.16647 146 ft 145 kts 300°
2026-04-21 18:33 24.89934 55.15556 353 ft 172 kts 302°
2026-04-21 18:33 24.90509 55.14427 930 ft 172 kts 301°
2026-04-21 18:33 24.91088 55.13237 1296 ft 187 kts 301°
2026-04-21 18:33 24.91701 55.11888 1700 ft 199 kts 302°
2026-04-21 18:34 24.92439 55.10536 1923 ft 213 kts 309°
2026-04-21 18:34 24.93327 55.09163 2041 ft 227 kts 308°
2026-04-21 18:34 24.94256 55.07689 2154 ft 246 kts 307°
2026-04-21 18:34 24.95195 55.06094 2901 ft 246 kts 304°
2026-04-21 18:35 24.95746 55.04974 3291 ft 258 kts 291°
2026-04-21 18:35 24.96070 55.02232 3985 ft 279 kts 273°
2026-04-21 18:35 24.96174 55.00085 4822 ft 282 kts 272°
2026-04-21 18:35 24.96284 54.97954 5829 ft 276 kts 272°
2026-04-21 18:36 24.96394 54.95848 6730 ft 276 kts 272°
2026-04-21 18:36 24.96502 54.93724 7561 ft 278 kts 271°
2026-04-21 18:36 24.96611 54.91590 8399 ft 280 kts 271°
2026-04-21 18:36 24.96720 54.89447 9292 ft 280 kts 271°
2026-04-21 18:37 24.96829 54.87296 10110 ft 284 kts 271°
2026-04-21 18:37 24.96939 54.85071 10407 ft 305 kts 271°
2026-04-21 18:37 24.97057 54.82658 10606 ft 326 kts 271°
2026-04-21 18:37 24.97184 54.80119 11139 ft 334 kts 271°
2026-04-21 18:38 24.97313 54.77552 11923 ft 336 kts 271°
2026-04-21 18:38 24.97443 54.74981 12669 ft 338 kts 271°
2026-04-21 18:38 24.97573 54.72380 13404 ft 342 kts 271°
2026-04-21 18:38 24.97702 54.69757 14119 ft 344 kts 271°
2026-04-21 18:39 24.97832 54.67112 14807 ft 346 kts 272°
2026-04-21 18:39 24.97962 54.64452 15480 ft 349 kts 272°
2026-04-21 18:39 24.98093 54.61771 16150 ft 352 kts 272°
2026-04-21 18:39 24.98224 54.59069 16826 ft 354 kts 273°
2026-04-21 18:40 24.98355 54.56381 17474 ft 357 kts 273°
2026-04-21 18:40 24.98488 54.53637 18117 ft 360 kts 273°
2026-04-21 18:40 24.98578 54.51768 18489 ft 362 kts 273°
2026-04-21 18:40 24.98755 54.48087 19215 ft 365 kts 273°
2026-04-21 18:41 24.98889 54.45281 19755 ft 368 kts 272°
2026-04-21 18:41 24.99024 54.42458 20290 ft 370 kts 272°
2026-04-21 18:41 24.99158 54.39612 20807 ft 373 kts 272°
2026-04-21 18:41 24.99293 54.36752 21407 ft 374 kts 272°
2026-04-21 18:42 24.99428 54.33879 21906 ft 377 kts 272°
2026-04-21 18:42 24.99563 54.30978 22403 ft 380 kts 272°
2026-04-21 18:42 24.99653 54.29045 22738 ft 382 kts 272°
2026-04-21 18:42 24.99836 54.25105 23404 ft 386 kts 272°
2026-04-21 18:43 24.99926 54.23142 23673 ft 388 kts 272°
2026-04-21 18:43 25.00063 54.20164 24106 ft 390 kts 272°
2026-04-21 18:43 25.00245 54.16192 24677 ft 393 kts 272°
2026-04-21 18:43 25.00383 54.13171 25120 ft 396 kts 272°
2026-04-21 18:44 25.00521 54.10125 25572 ft 399 kts 272°
2026-04-21 18:44 25.00613 54.08098 25897 ft 400 kts 272°
2026-04-21 18:44 25.00751 54.05021 26394 ft 403 kts 272°
2026-04-21 18:44 25.00890 54.01922 26902 ft 406 kts 272°
2026-04-21 18:45 25.01029 53.98798 27425 ft 409 kts 273°
2026-04-21 18:45 25.01168 53.95656 27988 ft 411 kts 273°
2026-04-21 18:45 25.01308 53.92492 28502 ft 415 kts 273°
2026-04-21 18:45 25.01449 53.89294 29039 ft 418 kts 273°
2026-04-21 18:46 25.01590 53.86078 29556 ft 422 kts 273°
2026-04-21 18:46 25.01731 53.82841 30067 ft 425 kts 273°
2026-04-21 18:46 25.01873 53.79568 30574 ft 427 kts 273°
2026-04-21 18:46 25.02014 53.76293 31096 ft 429 kts 273°
2026-04-21 18:47 25.02155 53.73001 31576 ft 431 kts 273°
2026-04-21 18:47 25.02295 53.69733 32031 ft 434 kts 273°
2026-04-21 18:47 25.02436 53.66403 32510 ft 437 kts 273°
2026-04-21 18:47 25.02578 53.63048 32980 ft 439 kts 273°
2026-04-21 18:48 25.02719 53.59677 33483 ft 441 kts 273°
2026-04-21 18:48 25.02861 53.56283 33873 ft 446 kts 274°
2026-04-21 18:48 25.03003 53.52861 33828 ft 448 kts 274°
2026-04-21 18:49 25.03286 53.45986 33826 ft 449 kts 273°
2026-04-21 18:49 25.03519 53.40271 33829 ft 449 kts 273°
2026-04-21 18:50 25.03843 53.32227 33829 ft 449 kts 273°
2026-04-21 18:50 25.04117 53.25347 33828 ft 449 kts 273°
2026-04-21 18:51 25.04387 53.18469 33821 ft 449 kts 273°
2026-04-21 18:51 25.04654 53.11586 33824 ft 449 kts 273°
2026-04-21 18:52 25.04917 53.04748 33830 ft 449 kts 273°
2026-04-21 18:52 25.05179 52.97857 33815 ft 450 kts 273°
2026-04-21 18:53 25.05437 52.90955 33819 ft 450 kts 273°
2026-04-21 18:53 25.05693 52.84048 33823 ft 451 kts 273°
2026-04-21 18:54 25.05945 52.77143 33852 ft 450 kts 273°
2026-04-21 18:54 25.06195 52.70234 33842 ft 450 kts 272°
2026-04-21 18:55 25.06399 52.64505 33842 ft 450 kts 272°
2026-04-21 18:55 25.06681 52.56483 33841 ft 450 kts 272°
2026-04-21 18:56 25.06919 52.49595 33858 ft 449 kts 273°
2026-04-21 18:56 25.07155 52.42711 33853 ft 449 kts 273°
2026-04-21 18:57 25.07388 52.35835 33848 ft 448 kts 273°
2026-04-21 18:57 25.07617 52.28962 33845 ft 448 kts 273°
2026-04-21 18:58 25.07926 52.22111 33855 ft 446 kts 277°
2026-04-21 18:58 25.09180 52.15422 33853 ft 446 kts 287°
2026-04-21 18:59 25.11082 52.08969 33858 ft 445 kts 287°
2026-04-21 18:59 25.12964 52.02498 33869 ft 444 kts 287°
2026-04-21 19:00 25.14848 51.96015 33856 ft 443 kts 287°
2026-04-21 19:00 25.16727 51.89551 33849 ft 442 kts 287°
2026-04-21 19:01 25.18603 51.83086 33844 ft 442 kts 287°
2026-04-21 19:01 25.20474 51.76627 33829 ft 441 kts 287°
2026-04-21 19:02 25.22341 51.70166 33850 ft 441 kts 287°
2026-04-21 19:02 25.24160 51.63719 33849 ft 439 kts 284°
2026-04-21 19:03 25.25210 51.57138 33837 ft 438 kts 276°
2026-04-21 19:03 25.25593 51.50432 33840 ft 437 kts 274°
2026-04-21 19:04 25.25988 51.43729 33835 ft 436 kts 274°
2026-04-21 19:04 25.26377 51.37010 33832 ft 436 kts 274°
2026-04-21 19:05 25.26755 51.30354 33856 ft 435 kts 274°
2026-04-21 19:05 25.27023 51.23722 33847 ft 435 kts 270°
2026-04-21 19:06 25.26930 51.17044 33844 ft 434 kts 271°
2026-04-21 19:06 25.26858 51.10377 33832 ft 434 kts 271°
2026-04-21 19:07 25.26781 51.03714 33828 ft 434 kts 271°
2026-04-21 19:07 25.26699 50.97044 33838 ft 433 kts 271°
2026-04-21 19:08 25.26614 50.90384 33839 ft 433 kts 271°
2026-04-21 19:08 25.26527 50.83767 33819 ft 434 kts 271°
2026-04-21 19:09 25.26436 50.77082 33828 ft 434 kts 271°
2026-04-21 19:09 25.26342 50.70411 33829 ft 435 kts 271°
2026-04-21 19:10 25.26245 50.63721 33824 ft 435 kts 270°
2026-04-21 19:10 25.26145 50.57077 33822 ft 436 kts 270°
2026-04-21 19:11 25.26042 50.50368 33828 ft 436 kts 271°
2026-04-21 19:11 25.26162 50.43660 33834 ft 437 kts 273°
2026-04-21 19:12 25.26347 50.36945 33834 ft 437 kts 272°
2026-04-21 19:12 25.26496 50.30221 33854 ft 438 kts 272°
2026-04-21 19:13 25.26631 50.23493 33868 ft 438 kts 272°
2026-04-21 19:13 25.26761 50.16765 33877 ft 438 kts 272°
2026-04-21 19:14 25.26888 50.10081 33876 ft 438 kts 272°
2026-04-21 19:14 25.27013 50.03350 33870 ft 438 kts 272°
2026-04-21 19:15 25.27134 49.96620 33875 ft 438 kts 272°
2026-04-21 19:15 25.27253 49.89882 33862 ft 438 kts 272°
2026-04-21 19:16 25.27368 49.83151 33859 ft 438 kts 272°
2026-04-21 19:16 25.27481 49.76412 33878 ft 438 kts 272°
2026-04-21 19:17 25.27643 49.66324 33865 ft 438 kts 272°
2026-04-21 19:17 25.27748 49.59634 33846 ft 438 kts 272°
2026-04-21 19:18 25.27849 49.52894 33849 ft 439 kts 272°
2026-04-21 19:18 25.27727 49.46140 33861 ft 439 kts 266°
2026-04-21 19:19 25.27098 49.39423 33860 ft 439 kts 266°
2026-04-21 19:19 25.26492 49.32700 33865 ft 440 kts 266°
2026-04-21 19:20 25.25883 49.25979 33844 ft 441 kts 265°
2026-04-21 19:20 25.25269 49.19272 33855 ft 441 kts 265°
2026-04-21 19:21 25.24644 49.12489 33877 ft 442 kts 265°
2026-04-21 19:21 25.24024 49.05782 33898 ft 441 kts 265°
2026-04-21 19:22 25.23397 48.99036 33899 ft 441 kts 265°
2026-04-21 19:22 25.22765 48.92278 33890 ft 441 kts 265°
2026-04-21 19:23 25.22452 48.88937 33631 ft 435 kts 265°
2026-04-21 19:23 25.22139 48.85611 32718 ft 437 kts 265°
2026-04-21 19:23 25.21824 48.82250 31539 ft 442 kts 265°
2026-04-21 19:23 25.21504 48.78861 30562 ft 444 kts 265°
2026-04-21 19:24 25.21184 48.75484 29749 ft 440 kts 265°
2026-04-21 19:24 25.20866 48.72140 28970 ft 435 kts 265°
2026-04-21 19:24 25.20556 48.68884 27956 ft 429 kts 265°
2026-04-21 19:24 25.20247 48.65640 27055 ft 420 kts 264°
2026-04-21 19:25 25.19941 48.62450 26045 ft 415 kts 265°
2026-04-21 19:25 25.19640 48.59311 25436 ft 410 kts 264°
2026-04-21 19:25 25.19341 48.56185 25101 ft 409 kts 264°
2026-04-21 19:25 25.19040 48.53056 24943 ft 410 kts 264°
2026-04-21 19:26 25.18738 48.49922 24883 ft 411 kts 264°
2026-04-21 19:26 25.18435 48.46789 24887 ft 410 kts 264°
2026-04-21 19:26 25.18132 48.43661 24886 ft 419 kts 264°
2026-04-21 19:26 25.17815 48.40394 24896 ft 434 kts 265°
2026-04-21 19:27 25.17489 48.37034 24887 ft 444 kts 265°
2026-04-21 19:27 25.17157 48.33628 24887 ft 446 kts 264°
2026-04-21 19:27 25.16823 48.30226 24885 ft 445 kts 264°
2026-04-21 19:27 25.16493 48.26859 24888 ft 445 kts 264°
2026-04-21 19:28 25.16155 48.23421 24889 ft 445 kts 264°
2026-04-21 19:28 25.15999 48.20058 24904 ft 445 kts 272°
2026-04-21 19:28 25.16346 48.16664 24892 ft 445 kts 277°
2026-04-21 19:28 25.16754 48.13266 24893 ft 445 kts 277°
2026-04-21 19:29 25.17160 48.09872 24892 ft 445 kts 277°
2026-04-21 19:29 25.17560 48.06483 24891 ft 445 kts 277°
2026-04-21 19:29 25.17956 48.03093 24895 ft 445 kts 277°
2026-04-21 19:29 25.18347 47.99708 24897 ft 447 kts 277°
2026-04-21 19:30 25.18742 47.96283 24906 ft 448 kts 277°
2026-04-21 19:30 25.19135 47.92860 24899 ft 446 kts 276°
2026-04-21 19:30 25.19524 47.89476 24903 ft 445 kts 276°
2026-04-21 19:30 25.19912 47.86082 24904 ft 445 kts 276°
2026-04-21 19:31 25.20299 47.82691 24904 ft 446 kts 276°
2026-04-21 19:31 25.20686 47.79293 24777 ft 446 kts 276°
2026-04-21 19:31 25.21072 47.75901 24556 ft 445 kts 276°
2026-04-21 19:31 25.21456 47.72518 24332 ft 443 kts 276°
2026-04-21 19:32 25.21839 47.69144 24113 ft 443 kts 276°
2026-04-21 19:32 25.22220 47.65773 23891 ft 442 kts 276°
2026-04-21 19:32 25.22599 47.62410 23671 ft 441 kts 276°
2026-04-21 19:32 25.22972 47.59101 23449 ft 440 kts 276°
2026-04-21 19:33 25.23227 47.56834 23270 ft 437 kts 276°
2026-04-21 19:33 25.23721 47.52431 22925 ft 435 kts 276°
2026-04-21 19:33 25.24091 47.49124 22665 ft 433 kts 276°
2026-04-21 19:33 25.24459 47.45831 22405 ft 431 kts 276°
2026-04-21 19:34 25.24825 47.42556 22161 ft 429 kts 276°
2026-04-21 19:34 25.25187 47.39294 21914 ft 427 kts 276°
2026-04-21 19:34 25.25547 47.36053 21662 ft 425 kts 276°
2026-04-21 19:34 25.25906 47.32809 21409 ft 423 kts 276°
2026-04-21 19:35 25.26262 47.29587 21168 ft 422 kts 276°
2026-04-21 19:35 25.26969 47.23172 20672 ft 419 kts 275°
2026-04-21 19:35 25.27320 47.19980 20443 ft 418 kts 275°
2026-04-21 19:36 25.27668 47.16800 20210 ft 416 kts 275°
2026-04-21 19:36 25.27898 47.14700 20043 ft 415 kts 275°
2026-04-21 19:36 25.28244 47.11538 19814 ft 414 kts 275°
2026-04-21 19:36 25.28588 47.08384 19583 ft 412 kts 275°
2026-04-21 19:37 25.28930 47.05242 19350 ft 411 kts 275°
2026-04-21 19:37 25.29269 47.02115 19113 ft 410 kts 275°
2026-04-21 19:37 25.29608 46.98993 18908 ft 409 kts 275°
2026-04-21 19:37 25.29945 46.95880 18691 ft 407 kts 275°
2026-04-21 19:38 25.30279 46.92789 18463 ft 404 kts 275°
2026-04-21 19:38 25.30611 46.89709 18138 ft 402 kts 275°
2026-04-21 19:38 25.30940 46.86651 17468 ft 399 kts 275°
2026-04-21 19:38 25.31264 46.83631 16879 ft 395 kts 275°
2026-04-21 19:39 25.31585 46.80628 16281 ft 392 kts 274°
2026-04-21 19:39 25.31904 46.77653 15691 ft 388 kts 274°
2026-04-21 19:39 25.32219 46.74700 15123 ft 385 kts 274°
2026-04-21 19:39 25.32527 46.71816 14899 ft 369 kts 274°
2026-04-21 19:40 25.32822 46.69065 14733 ft 350 kts 274°
2026-04-21 19:40 25.33096 46.66501 14578 ft 332 kts 274°
2026-04-21 19:40 25.33588 46.64075 14366 ft 319 kts 289°
2026-04-21 19:40 25.34730 46.62031 14196 ft 308 kts 306°
2026-04-21 19:41 25.36350 46.60528 13914 ft 304 kts 322°
2026-04-21 19:41 25.38177 46.59386 13431 ft 299 kts 323°
2026-04-21 19:41 25.39963 46.58258 12940 ft 293 kts 322°
2026-04-21 19:41 25.41708 46.57137 12443 ft 285 kts 319°
2026-04-21 19:42 25.43073 46.55672 11934 ft 265 kts 294°
2026-04-21 19:42 25.43623 46.53811 11533 ft 253 kts 269°
2026-04-21 19:42 25.43266 46.51977 11383 ft 240 kts 242°
2026-04-21 19:42 25.42157 46.50661 11292 ft 234 kts 214°
2026-04-21 19:43 25.40596 46.50168 11135 ft 239 kts 187°
2026-04-21 19:43 25.38926 46.50270 10845 ft 241 kts 183°
2026-04-21 19:43 25.37258 46.50381 10580 ft 240 kts 183°
2026-04-21 19:43 25.35595 46.50480 10283 ft 240 kts 183°
2026-04-21 19:44 25.33902 46.50559 9852 ft 247 kts 183°
2026-04-21 19:44 25.32153 46.50613 9330 ft 255 kts 183°
2026-04-21 19:44 25.30377 46.50648 8976 ft 253 kts 183°
2026-04-21 19:44 25.28659 46.50676 8881 ft 242 kts 183°
2026-04-21 19:45 25.26977 46.50704 8534 ft 243 kts 183°
2026-04-21 19:45 25.25286 46.50720 8189 ft 243 kts 182°
2026-04-21 19:45 25.23588 46.50956 7766 ft 251 kts 167°
2026-04-21 19:45 25.21959 46.51695 7427 ft 261 kts 157°
2026-04-21 19:46 25.20269 46.52723 7031 ft 284 kts 152°
2026-04-21 19:46 25.18618 46.53798 6694 ft 273 kts 153°
2026-04-21 19:46 25.17006 46.54817 6360 ft 261 kts 153°
2026-04-21 19:46 25.15464 46.55803 6067 ft 252 kts 152°
2026-04-21 19:47 25.13949 46.56766 5720 ft 251 kts 152°
2026-04-21 19:47 25.12439 46.57728 5380 ft 249 kts 150°
2026-04-21 19:47 25.10947 46.58679 5067 ft 247 kts 150°
2026-04-21 19:47 25.09470 46.59620 4782 ft 241 kts 149°
2026-04-21 19:48 25.08049 46.60523 4425 ft 229 kts 148°
2026-04-21 19:48 25.06705 46.61380 4166 ft 216 kts 148°
2026-04-21 19:48 25.05450 46.62177 3908 ft 197 kts 147°
2026-04-21 19:48 25.04360 46.62868 3685 ft 167 kts 146°
2026-04-21 19:49 25.03435 46.63457 3472 ft 145 kts 146°
2026-04-21 19:49 25.02586 46.63997 3288 ft 137 kts 145°
2026-04-21 19:49 25.01765 46.64523 3114 ft 136 kts 144°
2026-04-21 19:49 25.00945 46.65043 2937 ft 135 kts 143°
2026-04-21 19:50 25.00405 46.65389 2841 ft 136 kts 142°
2026-04-21 19:50 24.99291 46.66082 2578 ft 138 kts 148°
2026-04-21 19:50 24.98475 46.66603 2416 ft 135 kts 147°
2026-04-21 19:50 24.97653 46.67132 2221 ft 137 kts 149°
2026-04-21 19:51 24.96836 46.67646 2061 ft 128 kts 147°
2026-04-21 19:51 24.96183 46.68071 2048 ft 86 kts 147°
2026-04-21 19:51 24.95762 46.68336 2044 ft 56 kts 149°
2026-04-21 19:51 24.95482 46.68507 2042 ft 38 kts 149°
2026-04-21 19:52 24.95281 46.68637 2042 ft 29 kts 149°
2026-04-21 19:52 24.95125 46.68737 2038 ft 23 kts 149°
2026-04-21 19:52 24.95015 46.68840 2035 ft 19 kts 118°
2026-04-21 19:52 24.94963 46.68967 2039 ft 17 kts 102°
2026-04-21 19:53 24.94972 46.69079 2038 ft 11 kts 71°
2026-04-21 19:53 24.94986 46.69123 2040 ft 0 kts 71°
2026-04-21 19:53 24.94988 46.69129 2041 ft 2 kts 71°
2026-04-21 19:54 24.94996 46.69156 2040 ft 5 kts 71°
2026-04-21 19:54 24.95000 46.69230 2041 ft 12 kts 130°
2026-04-21 19:54 24.94866 46.69311 2039 ft 26 kts 159°
2026-04-21 19:54 24.94692 46.69356 2036 ft 25 kts 157°
2026-04-21 19:55 24.94587 46.69420 2039 ft 15 kts 152°
2026-04-21 19:55 24.94510 46.69476 2035 ft 10 kts 110°
2026-04-21 19:55 24.94539 46.69574 2040 ft 19 kts 59°
2026-04-21 19:55 24.94614 46.69723 2041 ft 23 kts 56°
2026-04-21 19:56 24.94695 46.69868 2039 ft 22 kts 59°
2026-04-21 19:56 24.94789 46.70047 2040 ft 27 kts 60°
2026-04-21 19:56 24.94876 46.70217 2044 ft 24 kts 60°
2026-04-21 19:56 24.94953 46.70366 2044 ft 21 kts 60°
2026-04-21 19:57 24.95020 46.70493 2044 ft 18 kts 60°
2026-04-21 19:57 24.95079 46.70606 2044 ft 16 kts 60°
2026-04-21 19:57 24.95140 46.70715 2041 ft 20 kts 58°
2026-04-21 19:57 24.95195 46.70820 2045 ft 11 kts 64°
2026-04-21 19:58 24.95187 46.70868 2044 ft 11 kts 132°
2026-04-21 19:58 24.95113 46.70920 2042 ft 13 kts 150°
2026-04-21 19:58 24.95027 46.70973 2045 ft 17 kts 150°
2026-04-21 19:58 24.94903 46.71051 2041 ft 24 kts 150°
2026-04-21 19:59 24.94744 46.71151 2044 ft 29 kts 150°
2026-04-21 19:59 24.94661 46.71198 2042 ft 8 kts 177°
2026-04-21 19:59 24.94619 46.71189 2045 ft 7 kts 214°
2026-04-21 19:59 24.94584 46.71142 2040 ft 0 kts 226°